| time (UTC) | temp F | wind direction | speed knots | gust knots | rain 1hr in | rain 24hr in | rain mn in | humidity % | barometer mb |
| 20260510192547 | 61 | 278 | 7.0 | 14.8 | 0.00 | 0.12 | 0.00 | 34 | 1017.6 |
| 20260510192502 | 61 | 278 | 7.0 | 14.8 | 0.00 | 0.12 | 0.00 | 35 | 1017.6 |
| 20260510192047 | 60 | 290 | 7.0 | 14.8 | 0.00 | 0.12 | 0.00 | 35 | 1017.7 |
| 20260510192002 | 60 | 291 | 7.0 | 14.8 | 0.00 | 0.12 | 0.00 | 35 | 1017.7 |
| 20260510191547 | 59 | 329 | 3.5 | 11.3 | 0.00 | 0.13 | 0.00 | 35 | 1017.7 |
| 20260510191501 | 58 | 330 | 3.5 | 11.3 | 0.00 | 0.13 | 0.00 | 35 | 1017.7 |
| 20260510191047 | 58 | 46 | 2.6 | 8.7 | 0.00 | 0.13 | 0.00 | 50 | 1017.8 |
| 20260510191001 | 58 | 46 | 2.6 | 8.7 | 0.00 | 0.13 | 0.00 | 50 | 1017.8 |
| 20260510190547 | 58 | 54 | 3.5 | 8.7 | 0.00 | 0.14 | 0.00 | 47 | 1017.8 |
| 20260510190502 | 58 | 54 | 3.5 | 8.7 | 0.00 | 0.14 | 0.00 | 47 | 1017.8 |
| 20260510190047 | 58 | 117 | 2.6 | 6.1 | 0.00 | 0.14 | 0.00 | 46 | 1017.6 |
| 20260510190002 | 58 | 118 | 2.6 | 6.1 | 0.00 | 0.14 | 0.00 | 46 | 1017.6 |
| 20260510185547 | 58 | 159 | 2.6 | 6.1 | 0.00 | 0.17 | 0.00 | 52 | 1017.6 |
| 20260510185523 | 58 | 159 | 2.6 | 6.1 | 0.00 | 0.17 | 0.00 | 52 | 1017.6 |
| 20260510185047 | 58 | 147 | 2.6 | 7.0 | 0.00 | 0.17 | 0.00 | 53 | 1017.5 |
| 20260510185002 | 58 | 147 | 2.6 | 7.0 | 0.00 | 0.17 | 0.00 | 57 | 1017.5 |
| 20260510184547 | 57 | 146 | 3.5 | 7.0 | 0.00 | 0.17 | 0.00 | 55 | 1017.5 |
| 20260510184501 | 57 | 146 | 3.5 | 7.0 | 0.00 | 0.17 | 0.00 | 55 | 1017.5 |
| 20260510184047 | 58 | 157 | 3.5 | 7.0 | 0.00 | 0.17 | 0.00 | 54 | 1017.6 |
| 20260510184001 | 58 | 157 | 3.5 | 7.0 | 0.00 | 0.17 | 0.00 | 54 | 1017.6 |
| 20260510183547 | 58 | 140 | 3.5 | 7.0 | 0.00 | 0.17 | 0.00 | 55 | 1017.6 |
| 20260510183502 | 58 | 140 | 3.5 | 7.0 | 0.00 | 0.17 | 0.00 | 55 | 1017.6 |
| 20260510183047 | 58 | 116 | 2.6 | 6.1 | 0.00 | 0.17 | 0.00 | 56 | 1017.5 |
| 20260510183002 | 58 | 116 | 2.6 | 6.1 | 0.00 | 0.17 | 0.00 | 56 | 1017.5 |
| 20260510182547 | 59 | 118 | 1.7 | 4.3 | 0.00 | 0.17 | 0.00 | 52 | 1017.5 |
| 20260510182502 | 59 | 118 | 1.7 | 4.3 | 0.00 | 0.17 | 0.00 | 52 | 1017.5 |
| 20260510182046 | 59 | 104 | 1.7 | 5.2 | 0.00 | 0.17 | 0.00 | 53 | 1017.5 |
| 20260510182001 | 59 | 104 | 1.7 | 5.2 | 0.00 | 0.17 | 0.00 | 53 | 1017.5 |
| 20260510181546 | 59 | 118 | 1.7 | 6.1 | 0.00 | 0.17 | 0.00 | 48 | 1017.5 |
| 20260510181502 | 59 | 119 | 1.7 | 6.1 | 0.00 | 0.17 | 0.00 | 47 | 1017.5 |
| 20260510181046 | 59 | 144 | 1.7 | 6.1 | 0.00 | 0.17 | 0.00 | 49 | 1017.4 |
| 20260510181002 | 59 | 144 | 1.7 | 6.1 | 0.00 | 0.17 | 0.00 | 49 | 1017.4 |
| 20260510180546 | 59 | 144 | 2.6 | 7.0 | 0.00 | 0.17 | 0.00 | 50 | 1017.3 |
| 20260510180522 | 59 | 144 | 2.6 | 7.0 | 0.00 | 0.17 | 0.00 | 50 | 1017.3 |
| 20260510180046 | 59 | 133 | 2.6 | 7.0 | 0.00 | 0.17 | 0.00 | 48 | 1017.3 |
| 20260510180023 | 59 | 133 | 2.6 | 7.0 | 0.00 | 0.17 | 0.00 | 48 | 1017.3 |
| 20260510175546 | 58 | 119 | 1.7 | 5.2 | 0.00 | 0.17 | 0.00 | 49 | 1017.3 |
| 20260510175502 | 58 | 119 | 1.7 | 5.2 | 0.00 | 0.17 | 0.00 | 49 | 1017.3 |
| 20260510175046 | 58 | 115 | 3.5 | 7.8 | 0.00 | 0.17 | 0.00 | 55 | 1017.4 |
| 20260510175002 | 58 | 115 | 3.5 | 7.8 | 0.00 | 0.17 | 0.00 | 55 | 1017.4 |
| 20260510174546 | 57 | 128 | 4.3 | 8.7 | 0.00 | 0.17 | 0.00 | 60 | 1017.2 |
| 20260510174502 | 57 | 128 | 4.3 | 8.7 | 0.00 | 0.17 | 0.00 | 60 | 1017.2 |
| 20260510174046 | 57 | 136 | 3.5 | 8.7 | 0.00 | 0.17 | 0.00 | 56 | 1017.3 |
| 20260510174002 | 57 | 136 | 3.5 | 8.7 | 0.00 | 0.17 | 0.00 | 56 | 1017.3 |
| 20260510173546 | 57 | 114 | 2.6 | 7.8 | 0.00 | 0.17 | 0.00 | 56 | 1017.3 |
| 20260510173501 | 57 | 113 | 2.6 | 7.8 | 0.00 | 0.17 | 0.00 | 56 | 1017.3 |
| 20260510173046 | 57 | 120 | 2.6 | 6.1 | 0.00 | 0.17 | 0.00 | 56 | 1017.2 |
| 20260510173002 | 57 | 120 | 2.6 | 6.1 | 0.00 | 0.17 | 0.00 | 56 | 1017.2 |
| 20260510172546 | 57 | 133 | 2.6 | 7.0 | 0.00 | 0.17 | 0.00 | 55 | 1017.4 |
| 20260510172502 | 57 | 133 | 2.6 | 7.0 | 0.00 | 0.17 | 0.00 | 55 | 1017.4 |
| 20260510172046 | 57 | 119 | 2.6 | 7.0 | 0.00 | 0.17 | 0.00 | 55 | 1017.3 |
| 20260510172002 | 57 | 119 | 2.6 | 7.0 | 0.00 | 0.17 | 0.00 | 55 | 1017.3 |
| 20260510171545 | 57 | 146 | 2.6 | 6.1 | 0.00 | 0.17 | 0.00 | 58 | 1017.5 |
| 20260510171502 | 57 | 146 | 2.6 | 6.1 | 0.00 | 0.17 | 0.00 | 58 | 1017.5 |
| 20260510171045 | 57 | 155 | 2.6 | 7.0 | 0.00 | 0.17 | 0.00 | 59 | 1017.5 |
| 20260510171002 | 57 | 155 | 2.6 | 7.0 | 0.00 | 0.17 | 0.00 | 59 | 1017.5 |
| 20260510170545 | 56 | 133 | 2.6 | 7.8 | 0.00 | 0.17 | 0.00 | 57 | 1017.6 |
| 20260510170502 | 56 | 133 | 2.6 | 7.8 | 0.00 | 0.17 | 0.00 | 57 | 1017.6 |
| 20260510170045 | 56 | 135 | 3.5 | 7.8 | 0.00 | 0.17 | 0.00 | 53 | 1017.4 |
| 20260510170001 | 56 | 135 | 3.5 | 7.8 | 0.00 | 0.17 | 0.00 | 53 | 1017.4 |
| 20260510165545 | 57 | 147 | 2.6 | 7.8 | 0.00 | 0.17 | 0.00 | 57 | 1017.5 |
| 20260510165502 | 57 | 147 | 2.6 | 7.8 | 0.00 | 0.17 | 0.00 | 57 | 1017.5 |
| 20260510165045 | 56 | 141 | 2.6 | 7.8 | 0.00 | 0.17 | 0.00 | 57 | 1017.5 |
| 20260510165002 | 56 | 141 | 2.6 | 7.8 | 0.00 | 0.17 | 0.00 | 57 | 1017.5 |
| 20260510164545 | 55 | 132 | 2.6 | 7.8 | 0.00 | 0.17 | 0.00 | 59 | 1017.5 |
| 20260510164502 | 55 | 132 | 2.6 | 7.8 | 0.00 | 0.17 | 0.00 | 59 | 1017.5 |
| 20260510164045 | 55 | 124 | 2.6 | 6.1 | 0.00 | 0.17 | 0.00 | 61 | 1017.6 |
| 20260510164002 | 55 | 124 | 2.6 | 6.1 | 0.00 | 0.17 | 0.00 | 61 | 1017.6 |
| 20260510163545 | 54 | 116 | 2.6 | 6.1 | 0.00 | 0.17 | 0.00 | 57 | 1017.5 |
| 20260510163502 | 54 | 116 | 2.6 | 6.1 | 0.00 | 0.17 | 0.00 | 57 | 1017.5 |
| 20260510163045 | 54 | 130 | 2.6 | 8.7 | 0.00 | 0.17 | 0.00 | 57 | 1017.5 |
| 20260510163001 | 54 | 130 | 2.6 | 8.7 | 0.00 | 0.17 | 0.00 | 57 | 1017.5 |
| 20260510162545 | 54 | 139 | 2.6 | 8.7 | 0.00 | 0.17 | 0.00 | 56 | 1017.5 |
| 20260510162523 | 54 | 139 | 2.6 | 8.7 | 0.00 | 0.17 | 0.00 | 56 | 1017.5 |
| 20260510162045 | 54 | 140 | 2.6 | 7.0 | 0.00 | 0.17 | 0.00 | 59 | 1017.6 |
| 20260510162002 | 54 | 139 | 2.6 | 7.0 | 0.00 | 0.17 | 0.00 | 59 | 1017.6 |
| 20260510161545 | 53 | 118 | 2.6 | 7.0 | 0.00 | 0.17 | 0.00 | 59 | 1017.4 |
| 20260510161502 | 53 | 118 | 2.6 | 7.0 | 0.00 | 0.17 | 0.00 | 59 | 1017.4 |
| 20260510161045 | 53 | 94 | 3.5 | 7.8 | 0.00 | 0.17 | 0.00 | 58 | 1017.4 |
| 20260510161002 | 53 | 94 | 3.5 | 7.8 | 0.00 | 0.17 | 0.00 | 58 | 1017.4 |
| 20260510160545 | 53 | 90 | 3.5 | 7.8 | 0.00 | 0.17 | 0.00 | 59 | 1017.2 |
| 20260510160502 | 53 | 90 | 3.5 | 7.8 | 0.00 | 0.17 | 0.00 | 59 | 1017.2 |
| 20260510160044 | 53 | 105 | 2.6 | 6.1 | 0.00 | 0.17 | 0.00 | 61 | 1017.3 |
| 20260510160002 | 53 | 105 | 2.6 | 6.1 | 0.00 | 0.17 | 0.00 | 62 | 1017.3 |
| 20260510155544 | 53 | 117 | 2.6 | 6.1 | 0.00 | 0.17 | 0.00 | 62 | 1017.2 |
| 20260510155502 | 53 | 118 | 2.6 | 6.1 | 0.00 | 0.17 | 0.00 | 62 | 1017.2 |
| 20260510155044 | 53 | 103 | 2.6 | 6.1 | 0.00 | 0.17 | 0.00 | 59 | 1017.4 |
| 20260510155002 | 53 | 103 | 2.6 | 6.1 | 0.00 | 0.17 | 0.00 | 59 | 1017.4 |
| 20260510154544 | 53 | 119 | 2.6 | 6.1 | 0.00 | 0.17 | 0.00 | 61 | 1017.2 |
| 20260510154502 | 53 | 119 | 2.6 | 6.1 | 0.00 | 0.17 | 0.00 | 61 | 1017.3 |
| 20260510154044 | 53 | 125 | 1.7 | 5.2 | 0.00 | 0.17 | 0.00 | 61 | 1017.2 |
| 20260510154002 | 53 | 125 | 1.7 | 5.2 | 0.00 | 0.17 | 0.00 | 61 | 1017.2 |
| 20260510153544 | 53 | 107 | 1.7 | 6.1 | 0.00 | 0.17 | 0.00 | 61 | 1017.2 |
| 20260510153523 | 53 | 107 | 1.7 | 6.1 | 0.00 | 0.17 | 0.00 | 61 | 1017.2 |
| 20260510153044 | 52 | 106 | 1.7 | 6.1 | 0.00 | 0.17 | 0.00 | 57 | 1017.0 |
| 20260510153003 | 52 | 106 | 1.7 | 6.1 | 0.00 | 0.17 | 0.00 | 57 | 1017.0 |
| 20260510152544 | 52 | 111 | 1.7 | 5.2 | 0.00 | 0.17 | 0.00 | 55 | 1017.1 |
| 20260510152502 | 52 | 111 | 1.7 | 5.2 | 0.00 | 0.17 | 0.00 | 56 | 1017.1 |
| 20260510152044 | 52 | 99 | 2.6 | 7.0 | 0.00 | 0.17 | 0.00 | 58 | 1017.0 |
| 20260510152002 | 52 | 98 | 2.6 | 7.0 | 0.00 | 0.17 | 0.00 | 58 | 1017.0 |
| 20260510151544 | 53 | 76 | 2.6 | 7.0 | 0.00 | 0.17 | 0.00 | 57 | 1017.0 |
| 20260510151502 | 53 | 76 | 2.6 | 7.0 | 0.00 | 0.17 | 0.00 | 57 | 1017.0 |
| 20260510151044 | 54 | 354 | 1.7 | 6.1 | 0.00 | 0.17 | 0.00 | 52 | 1017.1 |
| 20260510151002 | 54 | 353 | 1.7 | 6.1 | 0.00 | 0.17 | 0.00 | 52 | 1017.1 |
| 20260510150543 | 54 | 292 | 1.7 | 6.1 | 0.00 | 0.17 | 0.00 | 47 | 1016.9 |
| 20260510150502 | 54 | 291 | 1.7 | 6.1 | 0.00 | 0.17 | 0.00 | 47 | 1016.9 |
| 20260510150043 | 54 | 257 | 1.7 | 5.2 | 0.00 | 0.17 | 0.00 | 47 | 1016.9 |
| 20260510150002 | 54 | 258 | 1.7 | 6.1 | 0.00 | 0.17 | 0.00 | 47 | 1016.9 |
| 20260510145544 | 54 | 276 | 1.7 | 6.1 | 0.00 | 0.17 | 0.00 | 52 | 1016.8 |
| 20260510145502 | 54 | 276 | 1.7 | 6.1 | 0.00 | 0.17 | 0.00 | 52 | 1016.8 |
| 20260510145043 | 53 | 308 | 1.7 | 6.1 | 0.00 | 0.17 | 0.00 | 49 | 1016.6 |
| 20260510145002 | 53 | 308 | 1.7 | 6.1 | 0.00 | 0.17 | 0.00 | 49 | 1016.6 |
| 20260510144543 | 53 | 320 | 2.6 | 7.8 | 0.00 | 0.17 | 0.00 | 48 | 1016.7 |
| 20260510144502 | 53 | 320 | 2.6 | 7.8 | 0.00 | 0.17 | 0.00 | 48 | 1016.7 |
| 20260510144043 | 53 | 310 | 3.5 | 7.8 | 0.00 | 0.17 | 0.00 | 47 | 1016.7 |
| 20260510144002 | 53 | 310 | 3.5 | 7.8 | 0.00 | 0.17 | 0.00 | 47 | 1016.7 |
| 20260510143543 | 53 | 289 | 2.6 | 7.8 | 0.00 | 0.17 | 0.00 | 47 | 1016.6 |
| 20260510143502 | 53 | 289 | 2.6 | 7.8 | 0.00 | 0.17 | 0.00 | 47 | 1016.6 |
| 20260510143043 | 53 | 279 | 1.7 | 7.0 | 0.00 | 0.17 | 0.00 | 48 | 1016.7 |
| 20260510143002 | 53 | 279 | 1.7 | 7.0 | 0.00 | 0.17 | 0.00 | 48 | 1016.7 |
| 20260510142543 | 53 | 307 | 2.6 | 7.0 | 0.00 | 0.17 | 0.00 | 47 | 1016.7 |
| 20260510142502 | 53 | 308 | 2.6 | 7.0 | 0.00 | 0.17 | 0.00 | 47 | 1016.7 |
| 20260510142043 | 53 | 318 | 1.7 | 6.1 | 0.00 | 0.17 | 0.00 | 49 | 1016.6 |
| 20260510142002 | 53 | 318 | 1.7 | 6.1 | 0.00 | 0.17 | 0.00 | 49 | 1016.6 |
| 20260510141543 | 53 | 318 | 1.7 | 7.0 | 0.00 | 0.17 | 0.00 | 48 | 1016.6 |
| 20260510141502 | 53 | 318 | 1.7 | 7.0 | 0.00 | 0.17 | 0.00 | 48 | 1016.6 |
| 20260510141043 | 53 | 306 | 2.6 | 7.8 | 0.00 | 0.17 | 0.00 | 48 | 1016.7 |
| 20260510141002 | 53 | 306 | 2.6 | 7.8 | 0.00 | 0.17 | 0.00 | 48 | 1016.7 |
| 20260510140543 | 53 | 306 | 2.6 | 7.8 | 0.00 | 0.17 | 0.00 | 48 | 1016.6 |
| 20260510140502 | 53 | 306 | 2.6 | 7.8 | 0.00 | 0.17 | 0.00 | 48 | 1016.6 |
| 20260510140042 | 53 | 329 | 2.6 | 4.3 | 0.00 | 0.17 | 0.00 | 50 | 1016.5 |
| 20260510140003 | 53 | 330 | 2.6 | 4.3 | 0.00 | 0.17 | 0.00 | 50 | 1016.5 |
| 20260510135542 | 52 | 25 | 1.7 | 4.3 | 0.00 | 0.17 | 0.00 | 49 | 1016.6 |
| 20260510135502 | 52 | 25 | 1.7 | 4.3 | 0.00 | 0.17 | 0.00 | 49 | 1016.6 |
| 20260510135042 | 52 | 344 | 2.6 | 7.8 | 0.00 | 0.17 | 0.00 | 50 | 1016.5 |
| 20260510135002 | 52 | 343 | 2.6 | 7.8 | 0.00 | 0.17 | 0.00 | 50 | 1016.5 |
| 20260510134542 | 52 | 299 | 2.6 | 7.8 | 0.00 | 0.17 | 0.00 | 48 | 1016.5 |
| 20260510134503 | 52 | 298 | 2.6 | 7.8 | 0.00 | 0.17 | 0.00 | 48 | 1016.5 |
| 20260510134042 | 52 | 291 | 2.6 | 7.0 | 0.00 | 0.17 | 0.00 | 50 | 1016.4 |
| 20260510134002 | 52 | 291 | 2.6 | 7.0 | 0.00 | 0.17 | 0.00 | 50 | 1016.4 |
| 20260510133542 | 51 | 326 | 2.6 | 6.1 | 0.00 | 0.17 | 0.00 | 52 | 1016.4 |
| 20260510133501 | 51 | 326 | 2.6 | 6.1 | 0.00 | 0.17 | 0.00 | 52 | 1016.4 |
| 20260510133042 | 51 | 348 | 2.6 | 4.3 | 0.00 | 0.17 | 0.00 | 50 | 1016.3 |
| 20260510133024 | 51 | 348 | 2.6 | 4.3 | 0.00 | 0.17 | 0.00 | 50 | 1016.3 |
| 20260510132542 | 50 | 336 | 2.6 | 7.8 | 0.00 | 0.17 | 0.00 | 50 | 1016.2 |
| 20260510132502 | 50 | 336 | 2.6 | 7.8 | 0.00 | 0.17 | 0.00 | 50 | 1016.2 |
| 20260510132042 | 50 | 326 | 2.6 | 7.8 | 0.00 | 0.17 | 0.00 | 49 | 1016.2 |
| 20260510132003 | 50 | 326 | 2.6 | 7.8 | 0.00 | 0.17 | 0.00 | 49 | 1016.2 |
| 20260510131542 | 50 | 314 | 2.6 | 5.2 | 0.00 | 0.17 | 0.00 | 50 | 1016.1 |
| 20260510131502 | 50 | 314 | 2.6 | 5.2 | 0.00 | 0.17 | 0.00 | 50 | 1016.1 |
| 20260510131042 | 50 | 319 | 2.6 | 7.0 | 0.00 | 0.17 | 0.00 | 55 | 1016.2 |
| 20260510131023 | 50 | 319 | 2.6 | 7.0 | 0.00 | 0.17 | 0.00 | 55 | 1016.2 |
| 20260510130542 | 50 | 330 | 2.6 | 7.0 | 0.00 | 0.17 | 0.00 | 58 | 1016.1 |
| 20260510130503 | 50 | 330 | 2.6 | 7.0 | 0.00 | 0.17 | 0.00 | 58 | 1016.1 |
| 20260510130042 | 49 | 335 | 2.6 | 5.2 | 0.00 | 0.17 | 0.00 | 56 | 1016.0 |
| 20260510130002 | 49 | 335 | 2.6 | 5.2 | 0.00 | 0.17 | 0.00 | 56 | 1016.1 |
| 20260510125541 | 49 | 327 | 2.6 | 7.8 | 0.00 | 0.17 | 0.00 | 59 | 1016.0 |
| 20260510125502 | 49 | 327 | 2.6 | 7.8 | 0.00 | 0.17 | 0.00 | 59 | 1016.0 |
| 20260510125041 | 49 | 308 | 3.5 | 7.8 | 0.00 | 0.17 | 0.00 | 63 | 1015.9 |
| 20260510125003 | 49 | 307 | 3.5 | 7.8 | 0.00 | 0.17 | 0.00 | 63 | 1015.9 |
| 20260510124541 | 48 | 307 | 3.5 | 7.0 | 0.00 | 0.17 | 0.00 | 65 | 1015.9 |
| 20260510124502 | 48 | 307 | 3.5 | 7.0 | 0.00 | 0.17 | 0.00 | 65 | 1015.9 |
| 20260510124041 | 48 | 317 | 2.6 | 5.2 | 0.00 | 0.17 | 0.00 | 66 | 1015.9 |
| 20260510124002 | 48 | 317 | 2.6 | 5.2 | 0.00 | 0.17 | 0.00 | 66 | 1015.9 |
| 20260510123541 | 47 | 317 | 2.6 | 7.0 | 0.00 | 0.17 | 0.00 | 65 | 1015.9 |
| 20260510123502 | 47 | 317 | 2.6 | 7.0 | 0.00 | 0.17 | 0.00 | 65 | 1015.9 |
| 20260510123041 | 47 | 319 | 3.5 | 7.8 | 0.00 | 0.17 | 0.00 | 66 | 1015.8 |
| 20260510123002 | 47 | 320 | 3.5 | 7.8 | 0.00 | 0.17 | 0.00 | 66 | 1015.8 |
| 20260510122541 | 47 | 322 | 3.5 | 7.8 | 0.00 | 0.17 | 0.00 | 65 | 1015.9 |
| 20260510122503 | 47 | 321 | 3.5 | 7.8 | 0.00 | 0.17 | 0.00 | 65 | 1015.9 |
| 20260510122041 | 47 | 302 | 3.5 | 7.0 | 0.00 | 0.17 | 0.00 | 65 | 1015.8 |
| 20260510122002 | 47 | 301 | 3.5 | 7.0 | 0.00 | 0.17 | 0.00 | 65 | 1015.8 |
| 20260510121541 | 47 | 286 | 3.5 | 7.0 | 0.00 | 0.17 | 0.00 | 67 | 1015.7 |
| 20260510121502 | 47 | 287 | 3.5 | 7.0 | 0.00 | 0.17 | 0.00 | 67 | 1015.7 |
| 20260510121041 | 46 | 297 | 2.6 | 7.0 | 0.00 | 0.17 | 0.00 | 69 | 1015.7 |
| 20260510121003 | 46 | 297 | 2.6 | 7.0 | 0.00 | 0.17 | 0.00 | 69 | 1015.7 |
| 20260510120541 | 46 | 295 | 2.6 | 7.0 | 0.00 | 0.17 | 0.00 | 69 | 1015.6 |
| 20260510120503 | 46 | 295 | 2.6 | 7.0 | 0.00 | 0.17 | 0.00 | 69 | 1015.6 |
| 20260510120041 | 46 | 301 | 2.6 | 5.2 | 0.00 | 0.17 | 0.00 | 72 | 1015.4 |
| 20260510120003 | 46 | 301 | 2.6 | 5.2 | 0.00 | 0.17 | 0.00 | 72 | 1015.4 |
| 20260510115540 | 45 | 320 | 2.6 | 5.2 | 0.00 | 0.17 | 0.00 | 72 | 1015.4 |
| 20260510115523 | 45 | 320 | 2.6 | 5.2 | 0.00 | 0.17 | 0.00 | 72 | 1015.4 |
| 20260510115040 | 45 | 309 | 2.6 | 6.1 | 0.00 | 0.17 | 0.00 | 70 | 1015.3 |
| 20260510115002 | 45 | 309 | 2.6 | 6.1 | 0.00 | 0.17 | 0.00 | 70 | 1015.3 |
| 20260510114540 | 45 | 301 | 3.5 | 6.1 | 0.00 | 0.17 | 0.00 | 71 | 1015.2 |
| 20260510114503 | 45 | 301 | 3.5 | 6.1 | 0.00 | 0.17 | 0.00 | 71 | 1015.2 |
| 20260510114040 | 45 | 306 | 3.5 | 7.0 | 0.00 | 0.17 | 0.00 | 71 | 1015.2 |
| 20260510114002 | 45 | 306 | 3.5 | 7.0 | 0.00 | 0.17 | 0.00 | 71 | 1015.2 |
| 20260510113540 | 44 | 303 | 2.6 | 7.0 | 0.00 | 0.17 | 0.00 | 73 | 1015.2 |
| 20260510113502 | 44 | 303 | 2.6 | 7.0 | 0.00 | 0.17 | 0.00 | 73 | 1015.2 |
| 20260510113040 | 44 | 306 | 2.6 | 6.1 | 0.00 | 0.17 | 0.00 | 75 | 1014.9 |
| 20260510113002 | 44 | 306 | 2.6 | 6.1 | 0.00 | 0.17 | 0.00 | 75 | 1014.9 |
| 20260510112540 | 44 | 330 | 2.6 | 6.1 | 0.00 | 0.17 | 0.00 | 76 | 1015.0 |
| 20260510112523 | 44 | 331 | 2.6 | 6.1 | 0.00 | 0.17 | 0.00 | 76 | 1015.0 |
| 20260510112040 | 43 | 5 | 1.7 | 3.5 | 0.00 | 0.17 | 0.00 | 79 | 1014.7 |
| 20260510112002 | 43 | 5 | 1.7 | 3.5 | 0.00 | 0.17 | 0.00 | 79 | 1014.7 |
| 20260510111540 | 43 | 16 | 1.7 | 3.5 | 0.00 | 0.17 | 0.00 | 82 | 1014.7 |
| 20260510111523 | 43 | 16 | 1.7 | 3.5 | 0.00 | 0.17 | 0.00 | 82 | 1014.7 |
| 20260510111040 | 42 | 17 | 1.7 | 2.6 | 0.00 | 0.17 | 0.00 | 84 | 1014.6 |
| 20260510111002 | 42 | 17 | 1.7 | 2.6 | 0.00 | 0.17 | 0.00 | 84 | 1014.6 |
| 20260510110540 | 41 | 17 | 1.7 | 2.6 | 0.00 | 0.17 | 0.00 | 84 | 1014.5 |
| 20260510110502 | 41 | 17 | 1.7 | 2.6 | 0.00 | 0.17 | 0.00 | 84 | 1014.5 |
| 20260510110040 | 41 | 17 | 1.7 | 2.6 | 0.00 | 0.17 | 0.00 | 84 | 1014.6 |
| 20260510110023 | 41 | 17 | 1.7 | 2.6 | 0.00 | 0.17 | 0.00 | 84 | 1014.6 |
| 20260510105540 | 41 | 17 | 1.7 | 2.6 | 0.00 | 0.17 | 0.00 | 84 | 1014.6 |
| 20260510105503 | 41 | 17 | 1.7 | 2.6 | 0.00 | 0.17 | 0.00 | 84 | 1014.6 |
| 20260510105040 | 40 | 17 | 1.7 | 2.6 | 0.00 | 0.17 | 0.00 | 85 | 1014.4 |
| 20260510105002 | 40 | 17 | 1.7 | 2.6 | 0.00 | 0.17 | 0.00 | 85 | 1014.4 |
| 20260510104539 | 40 | 17 | 0.9 | 2.6 | 0.00 | 0.17 | 0.00 | 84 | 1014.6 |
| 20260510104523 | 40 | 17 | 0.9 | 2.6 | 0.00 | 0.17 | 0.00 | 84 | 1014.6 |
| 20260510104039 | 40 | 17 | 0.9 | 2.6 | 0.00 | 0.17 | 0.00 | 83 | 1014.3 |
| 20260510104003 | 40 | 17 | 0.9 | 2.6 | 0.00 | 0.17 | 0.00 | 83 | 1014.3 |
| 20260510103539 | 40 | 17 | 0.0 | 2.6 | 0.00 | 0.17 | 0.00 | 82 | 1014.2 |
| 20260510103524 | 40 | 17 | 0.0 | 1.7 | 0.00 | 0.17 | 0.00 | 82 | 1014.2 |
| 20260510103039 | 40 | 0 | 0.0 | 0.0 | 0.00 | 0.17 | 0.00 | 81 | 1014.0 |
| 20260510103024 | 40 | 0 | 0.0 | 0.0 | 0.00 | 0.17 | 0.00 | 81 | 1014.0 |
| 20260510102539 | 40 | 0 | 0.0 | 0.0 | 0.00 | 0.17 | 0.00 | 81 | 1014.0 |
| 20260510102503 | 40 | 0 | 0.0 | 0.0 | 0.00 | 0.17 | 0.00 | 81 | 1014.0 |
| 20260510102039 | 40 | 0 | 0.0 | 0.0 | 0.00 | 0.17 | 0.00 | 81 | 1014.0 |
| 20260510102003 | 40 | 0 | 0.0 | 0.0 | 0.00 | 0.17 | 0.00 | 81 | 1014.0 |
| 20260510101539 | 40 | 0 | 0.0 | 0.0 | 0.00 | 0.17 | 0.00 | 81 | 1013.9 |
| 20260510101502 | 40 | 0 | 0.0 | 0.0 | 0.00 | 0.17 | 0.00 | 81 | 1013.9 |
| 20260510101039 | 40 | 0 | 0.0 | 0.0 | 0.00 | 0.17 | 0.00 | 80 | 1013.9 |
| 20260510101024 | 40 | 0 | 0.0 | 0.0 | 0.00 | 0.17 | 0.00 | 80 | 1013.9 |
| 20260510100539 | 40 | 0 | 0.0 | 0.0 | 0.00 | 0.17 | 0.00 | 80 | 1013.8 |
| 20260510100502 | 40 | 0 | 0.0 | 0.0 | 0.00 | 0.17 | 0.00 | 80 | 1013.8 |
| 20260510100039 | 40 | 0 | 0.0 | 0.0 | 0.00 | 0.17 | 0.00 | 80 | 1013.9 |
| 20260510100003 | 40 | 0 | 0.0 | 0.0 | 0.00 | 0.17 | 0.00 | 80 | 1013.9 |
| 20260510095539 | 40 | 0 | 0.0 | 0.0 | 0.00 | 0.17 | 0.00 | 80 | 1013.9 |
| 20260510095502 | 40 | 0 | 0.0 | 0.0 | 0.00 | 0.17 | 0.00 | 80 | 1013.9 |
| 20260510095039 | 41 | 0 | 0.0 | 0.0 | 0.00 | 0.17 | 0.00 | 79 | 1013.9 |
| 20260510095002 | 41 | 0 | 0.0 | 0.0 | 0.00 | 0.17 | 0.00 | 79 | 1013.9 |
| 20260510094539 | 41 | 0 | 0.0 | 0.0 | 0.00 | 0.17 | 0.00 | 78 | 1013.8 |
| 20260510094503 | 41 | 0 | 0.0 | 0.0 | 0.00 | 0.17 | 0.00 | 78 | 1013.8 |
| 20260510094039 | 41 | 0 | 0.0 | 0.0 | 0.00 | 0.17 | 0.00 | 78 | 1013.8 |
| 20260510094003 | 41 | 0 | 0.0 | 0.0 | 0.00 | 0.17 | 0.00 | 78 | 1013.8 |
| 20260510093538 | 41 | 0 | 0.0 | 0.0 | 0.00 | 0.17 | 0.00 | 78 | 1013.8 |
| 20260510093502 | 41 | 0 | 0.0 | 0.0 | 0.00 | 0.17 | 0.00 | 78 | 1013.8 |
| 20260510093038 | 41 | 0 | 0.0 | 0.0 | 0.00 | 0.17 | 0.00 | 78 | 1013.7 |
| 20260510093003 | 41 | 0 | 0.0 | 0.0 | 0.00 | 0.17 | 0.00 | 78 | 1013.7 |
| 20260510092538 | 42 | 0 | 0.0 | 0.0 | 0.00 | 0.17 | 0.00 | 77 | 1013.6 |
| 20260510092503 | 42 | 0 | 0.0 | 0.0 | 0.00 | 0.17 | 0.00 | 77 | 1013.6 |
| 20260510092038 | 42 | 0 | 0.0 | 0.0 | 0.00 | 0.17 | 0.00 | 77 | 1013.4 |
| 20260510092002 | 42 | 0 | 0.0 | 0.0 | 0.00 | 0.17 | 0.00 | 77 | 1013.4 |
| 20260510091538 | 42 | 0 | 0.0 | 0.0 | 0.00 | 0.17 | 0.00 | 77 | 1013.3 |
| 20260510091502 | 42 | 0 | 0.0 | 0.0 | 0.00 | 0.17 | 0.00 | 77 | 1013.3 |
| 20260510091038 | 42 | 0 | 0.0 | 0.0 | 0.00 | 0.17 | 0.00 | 76 | 1013.3 |
| 20260510091003 | 42 | 0 | 0.0 | 0.0 | 0.00 | 0.17 | 0.00 | 76 | 1013.3 |
| 20260510090538 | 42 | 0 | 0.0 | 0.0 | 0.00 | 0.17 | 0.00 | 76 | 1013.2 |
| 20260510090502 | 42 | 0 | 0.0 | 0.0 | 0.00 | 0.17 | 0.00 | 76 | 1013.2 |
| 20260510090038 | 43 | 0 | 0.0 | 0.0 | 0.00 | 0.17 | 0.00 | 76 | 1013.1 |
| 20260510090002 | 43 | 0 | 0.0 | 0.0 | 0.00 | 0.17 | 0.00 | 76 | 1013.1 |
| 20260510085538 | 43 | 0 | 0.0 | 0.0 | 0.00 | 0.17 | 0.00 | 76 | 1013.1 |
| 20260510085503 | 43 | 0 | 0.0 | 0.0 | 0.00 | 0.17 | 0.00 | 76 | 1013.0 |
| 20260510085038 | 43 | 0 | 0.0 | 0.0 | 0.00 | 0.17 | 0.00 | 75 | 1012.9 |
| 20260510085003 | 43 | 0 | 0.0 | 0.0 | 0.00 | 0.17 | 0.00 | 75 | 1012.9 |
| 20260510084538 | 43 | 0 | 0.0 | 0.0 | 0.00 | 0.17 | 0.00 | 75 | 1012.7 |
| 20260510084502 | 43 | 0 | 0.0 | 0.0 | 0.00 | 0.17 | 0.00 | 75 | 1012.7 |
| 20260510084038 | 44 | 0 | 0.0 | 0.0 | 0.00 | 0.17 | 0.00 | 74 | 1012.6 |
| 20260510084003 | 44 | 0 | 0.0 | 0.0 | 0.00 | 0.17 | 0.00 | 74 | 1012.6 |
| 20260510083538 | 44 | 0 | 0.0 | 0.0 | 0.00 | 0.17 | 0.00 | 74 | 1012.5 |
| 20260510083502 | 44 | 0 | 0.0 | 0.0 | 0.00 | 0.17 | 0.00 | 74 | 1012.5 |
| 20260510083037 | 44 | 0 | 0.0 | 0.0 | 0.00 | 0.17 | 0.00 | 74 | 1012.4 |
| 20260510083003 | 44 | 0 | 0.0 | 0.0 | 0.00 | 0.17 | 0.00 | 74 | 1012.4 |
| 20260510082537 | 44 | 0 | 0.0 | 0.0 | 0.00 | 0.17 | 0.00 | 74 | 1012.4 |
| 20260510082502 | 44 | 0 | 0.0 | 0.0 | 0.00 | 0.17 | 0.00 | 74 | 1012.4 |
| 20260510082037 | 44 | 0 | 0.0 | 0.0 | 0.00 | 0.17 | 0.00 | 74 | 1012.3 |
| 20260510082003 | 44 | 0 | 0.0 | 0.0 | 0.00 | 0.17 | 0.00 | 74 | 1012.3 |
| 20260510081537 | 44 | 17 | 0.0 | 2.6 | 0.00 | 0.17 | 0.00 | 74 | 1012.2 |
| 20260510081503 | 44 | 17 | 0.0 | 2.6 | 0.00 | 0.17 | 0.00 | 74 | 1012.2 |
| 20260510081037 | 45 | 17 | 0.0 | 2.6 | 0.00 | 0.17 | 0.00 | 73 | 1012.1 |
| 20260510081023 | 45 | 17 | 0.0 | 2.6 | 0.00 | 0.17 | 0.00 | 73 | 1012.1 |
| 20260510080537 | 45 | 17 | 0.0 | 2.6 | 0.00 | 0.17 | 0.00 | 73 | 1011.9 |
| 20260510080524 | 45 | 17 | 0.0 | 2.6 | 0.00 | 0.17 | 0.00 | 73 | 1011.9 |
| 20260510080037 | 45 | 17 | 0.9 | 2.6 | 0.00 | 0.17 | 0.00 | 73 | 1011.8 |
| 20260510080002 | 45 | 17 | 0.9 | 2.6 | 0.00 | 0.17 | 0.00 | 72 | 1011.8 |
| 20260510075537 | 45 | 17 | 0.9 | 3.5 | 0.00 | 0.17 | 0.00 | 72 | 1011.7 |
| 20260510075524 | 45 | 17 | 0.9 | 3.5 | 0.00 | 0.17 | 0.00 | 72 | 1011.7 |
| 20260510075037 | 46 | 17 | 0.0 | 3.5 | 0.00 | 0.17 | 0.00 | 71 | 1011.4 |
| 20260510075003 | 46 | 17 | 0.0 | 3.5 | 0.00 | 0.17 | 0.00 | 71 | 1011.4 |
| 20260510074537 | 46 | 18 | 0.0 | 1.7 | 0.00 | 0.17 | 0.00 | 71 | 1011.4 |
| 20260510074503 | 46 | 18 | 0.0 | 1.7 | 0.00 | 0.17 | 0.00 | 71 | 1011.4 |
| 20260510074037 | 46 | 12 | 0.9 | 7.0 | 0.00 | 0.17 | 0.00 | 71 | 1011.2 |
| 20260510074003 | 46 | 12 | 0.9 | 7.0 | 0.00 | 0.17 | 0.00 | 71 | 1011.2 |
| 20260510073537 | 46 | 10 | 1.7 | 7.0 | 0.00 | 0.17 | 0.00 | 71 | 1011.1 |
| 20260510073503 | 46 | 10 | 1.7 | 7.0 | 0.00 | 0.17 | 0.00 | 71 | 1011.1 |
| 20260510073037 | 46 | 12 | 1.7 | 4.3 | 0.00 | 0.17 | 0.00 | 71 | 1011.0 |
| 20260510073002 | 46 | 12 | 1.7 | 4.3 | 0.00 | 0.17 | 0.00 | 71 | 1011.0 |
| 20260510072537 | 47 | 20 | 0.9 | 4.3 | 0.00 | 0.17 | 0.00 | 72 | 1011.1 |
| 20260510072503 | 47 | 20 | 0.9 | 4.3 | 0.00 | 0.17 | 0.00 | 72 | 1011.1 |
| 20260510072036 | 47 | 36 | 0.9 | 4.3 | 0.00 | 0.17 | 0.00 | 72 | 1011.0 |
| 20260510072002 | 47 | 36 | 0.9 | 4.3 | 0.00 | 0.17 | 0.00 | 72 | 1011.0 |
| 20260510071536 | 48 | 49 | 0.9 | 4.3 | 0.00 | 0.17 | 0.00 | 72 | 1010.9 |
| 20260510071503 | 48 | 49 | 0.9 | 4.3 | 0.00 | 0.17 | 0.00 | 72 | 1010.9 |
| 20260510071036 | 48 | 60 | 1.7 | 5.2 | 0.00 | 0.17 | 0.00 | 73 | 1010.9 |
| 20260510071003 | 48 | 60 | 1.7 | 5.2 | 0.00 | 0.17 | 0.00 | 73 | 1010.9 |
| 20260510070536 | 48 | 62 | 1.7 | 5.2 | 0.00 | 0.17 | 0.00 | 72 | 1010.8 |
| 20260510070503 | 48 | 62 | 1.7 | 5.2 | 0.00 | 0.17 | 0.00 | 72 | 1010.8 |
| 20260510070036 | 48 | 48 | 1.7 | 4.3 | 0.00 | 0.17 | 0.00 | 71 | 1010.9 |
| 20260510070003 | 48 | 48 | 1.7 | 4.3 | 0.00 | 0.17 | 0.00 | 71 | 1010.9 |
| 20260510065536 | 49 | 56 | 2.6 | 9.6 | 0.00 | 0.17 | 0.00 | 72 | 1010.8 |
| 20260510065503 | 49 | 56 | 2.6 | 9.6 | 0.00 | 0.17 | 0.00 | 72 | 1010.8 |
| 20260510065036 | 49 | 66 | 3.5 | 9.6 | 0.00 | 0.17 | 0.00 | 73 | 1010.7 |
| 20260510065002 | 49 | 66 | 3.5 | 9.6 | 0.00 | 0.17 | 0.00 | 73 | 1010.7 |
| 20260510064536 | 49 | 64 | 3.5 | 8.7 | 0.00 | 0.17 | 0.00 | 72 | 1010.7 |
| 20260510064503 | 49 | 64 | 3.5 | 8.7 | 0.00 | 0.17 | 0.00 | 72 | 1010.7 |
| 20260510064036 | 50 | 64 | 2.6 | 7.8 | 0.00 | 0.17 | 0.00 | 72 | 1010.7 |
| 20260510064003 | 50 | 64 | 2.6 | 7.8 | 0.00 | 0.17 | 0.00 | 72 | 1010.7 |
| 20260510063536 | 50 | 62 | 2.6 | 7.0 | 0.00 | 0.17 | 0.00 | 70 | 1010.6 |
| 20260510063504 | 50 | 62 | 2.6 | 7.0 | 0.00 | 0.17 | 0.00 | 70 | 1010.6 |
| 20260510063036 | 50 | 60 | 2.6 | 5.2 | 0.00 | 0.17 | 0.00 | 69 | 1010.6 |
| 20260510063024 | 50 | 60 | 2.6 | 5.2 | 0.00 | 0.17 | 0.00 | 69 | 1010.6 |
| 20260510062536 | 50 | 64 | 2.6 | 7.0 | 0.00 | 0.17 | 0.00 | 69 | 1010.5 |
| 20260510062503 | 50 | 64 | 2.6 | 7.0 | 0.00 | 0.17 | 0.00 | 69 | 1010.5 |
| 20260510062036 | 50 | 70 | 0.9 | 7.0 | 0.00 | 0.17 | 0.00 | 66 | 1010.4 |
| 20260510062002 | 50 | 70 | 0.9 | 7.0 | 0.00 | 0.17 | 0.00 | 66 | 1010.4 |
| 20260510061535 | 50 | 0 | 0.0 | 0.0 | 0.00 | 0.17 | 0.00 | 65 | 1010.3 |
| 20260510061504 | 50 | 0 | 0.0 | 0.0 | 0.00 | 0.17 | 0.00 | 65 | 1010.3 |
| 20260510061035 | 50 | 0 | 0.0 | 0.0 | 0.00 | 0.17 | 0.00 | 64 | 1010.2 |
| 20260510061024 | 50 | 0 | 0.0 | 0.0 | 0.00 | 0.17 | 0.00 | 64 | 1010.2 |
| 20260510060535 | 50 | 0 | 0.0 | 0.0 | 0.00 | 0.17 | 0.00 | 64 | 1010.0 |
| 20260510060503 | 50 | 0 | 0.0 | 0.0 | 0.00 | 0.17 | 0.00 | 64 | 1010.0 |
| 20260510060035 | 51 | 0 | 0.0 | 0.0 | 0.00 | 0.17 | 0.00 | 63 | 1009.9 |
| 20260510060024 | 51 | 0 | 0.0 | 0.0 | 0.00 | 0.17 | 0.00 | 63 | 1009.9 |
| 20260510055535 | 51 | 0 | 0.0 | 0.0 | 0.00 | 0.17 | 0.00 | 62 | 1009.9 |
| 20260510055503 | 51 | 0 | 0.0 | 0.0 | 0.00 | 0.17 | 0.00 | 62 | 1009.9 |
| 20260510055035 | 51 | 0 | 0.0 | 0.0 | 0.00 | 0.17 | 0.00 | 62 | 1009.8 |
| 20260510055003 | 51 | 0 | 0.0 | 0.0 | 0.00 | 0.17 | 0.00 | 62 | 1009.8 |
| 20260510054535 | 51 | 0 | 0.0 | 0.0 | 0.00 | 0.17 | 0.00 | 61 | 1009.9 |
| 20260510054503 | 51 | 0 | 0.0 | 0.0 | 0.00 | 0.17 | 0.00 | 61 | 1009.9 |
| 20260510054035 | 52 | 0 | 0.0 | 0.0 | 0.00 | 0.17 | 0.00 | 61 | 1009.9 |
| 20260510054004 | 52 | 0 | 0.0 | 0.0 | 0.00 | 0.17 | 0.00 | 61 | 1009.9 |
| 20260510053535 | 52 | 0 | 0.0 | 0.0 | 0.00 | 0.17 | 0.00 | 60 | 1009.7 |
| 20260510053503 | 52 | 0 | 0.0 | 0.0 | 0.00 | 0.17 | 0.00 | 60 | 1009.7 |
| 20260510053035 | 52 | 0 | 0.0 | 0.0 | 0.00 | 0.17 | 0.00 | 60 | 1009.7 |
| 20260510053003 | 52 | 0 | 0.0 | 0.0 | 0.00 | 0.17 | 0.00 | 60 | 1009.7 |
| 20260510052535 | 52 | 0 | 0.0 | 0.0 | 0.00 | 0.17 | 0.00 | 60 | 1009.6 |
| 20260510052523 | 52 | 0 | 0.0 | 0.0 | 0.00 | 0.17 | 0.00 | 60 | 1009.6 |
| 20260510052035 | 52 | 0 | 0.0 | 0.0 | 0.00 | 0.17 | 0.00 | 59 | 1009.5 |
| 20260510052003 | 52 | 0 | 0.0 | 0.0 | 0.00 | 0.17 | 0.00 | 59 | 1009.4 |
| 20260510051535 | 53 | 0 | 0.0 | 0.0 | 0.00 | 0.17 | 0.00 | 59 | 1009.5 |
| 20260510051503 | 53 | 0 | 0.0 | 0.0 | 0.00 | 0.17 | 0.00 | 59 | 1009.5 |
| 20260510051035 | 53 | 0 | 0.0 | 0.0 | 0.00 | 0.17 | 0.00 | 59 | 1009.5 |
| 20260510051003 | 53 | 0 | 0.0 | 0.0 | 0.00 | 0.17 | 0.00 | 59 | 1009.5 |
| 20260510050535 | 53 | 328 | 0.9 | 5.2 | 0.00 | 0.17 | 0.00 | 59 | 1009.3 |
| 20260510050503 | 53 | 328 | 0.9 | 5.2 | 0.00 | 0.17 | 0.00 | 59 | 1009.3 |
| 20260510050035 | 53 | 336 | 1.7 | 5.2 | 0.00 | 0.17 | 0.00 | 58 | 1009.1 |
| 20260510050003 | 53 | 336 | 1.7 | 5.2 | 0.00 | 0.17 | 0.00 | 58 | 1009.1 |
| 20260510045534 | 54 | 345 | 1.7 | 4.3 | 0.00 | 0.17 | 0.00 | 58 | 1009.0 |
| 20260510045503 | 54 | 345 | 1.7 | 4.3 | 0.00 | 0.17 | 0.00 | 58 | 1009.0 |
| 20260510045034 | 54 | 349 | 1.7 | 3.5 | 0.00 | 0.17 | 0.00 | 58 | 1008.8 |
| 20260510045002 | 54 | 349 | 1.7 | 3.5 | 0.00 | 0.17 | 0.00 | 58 | 1008.8 |
| 20260510044534 | 54 | 355 | 1.7 | 3.5 | 0.00 | 0.17 | 0.00 | 58 | 1008.7 |
| 20260510044503 | 54 | 355 | 1.7 | 3.5 | 0.00 | 0.17 | 0.00 | 58 | 1008.7 |
| 20260510044034 | 54 | 353 | 1.7 | 4.3 | 0.00 | 0.17 | 0.00 | 57 | 1008.6 |
| 20260510044003 | 54 | 353 | 1.7 | 4.3 | 0.00 | 0.17 | 0.00 | 57 | 1008.6 |
| 20260510043534 | 54 | 357 | 1.7 | 4.3 | 0.00 | 0.17 | 0.00 | 57 | 1008.6 |
| 20260510043524 | 54 | 357 | 1.7 | 4.3 | 0.00 | 0.17 | 0.00 | 57 | 1008.6 |
| 20260510043034 | 54 | 11 | 0.9 | 4.3 | 0.00 | 0.17 | 0.00 | 58 | 1008.7 |
| 20260510043003 | 54 | 11 | 0.9 | 4.3 | 0.00 | 0.17 | 0.00 | 58 | 1008.7 |
| 20260510042534 | 54 | 13 | 0.9 | 4.3 | 0.00 | 0.17 | 0.00 | 58 | 1008.6 |
| 20260510042524 | 54 | 13 | 0.9 | 4.3 | 0.00 | 0.17 | 0.00 | 58 | 1008.6 |
| 20260510042034 | 55 | 5 | 0.9 | 2.6 | 0.00 | 0.17 | 0.00 | 58 | 1008.5 |
| 20260510042004 | 55 | 5 | 0.9 | 2.6 | 0.00 | 0.17 | 0.00 | 58 | 1008.5 |
| 20260510041534 | 55 | 356 | 0.9 | 4.3 | 0.00 | 0.17 | 0.00 | 58 | 1008.4 |
| 20260510041503 | 55 | 355 | 0.9 | 4.3 | 0.00 | 0.17 | 0.00 | 58 | 1008.4 |
| 20260510041034 | 55 | 336 | 1.7 | 4.3 | 0.00 | 0.17 | 0.00 | 58 | 1008.3 |
| 20260510041003 | 55 | 336 | 1.7 | 4.3 | 0.00 | 0.17 | 0.00 | 58 | 1008.3 |
| 20260510040534 | 55 | 351 | 1.7 | 4.3 | 0.00 | 0.17 | 0.00 | 57 | 1008.2 |
| 20260510040503 | 55 | 351 | 1.7 | 4.3 | 0.00 | 0.17 | 0.00 | 57 | 1008.2 |
| 20260510040034 | 56 | 2 | 1.7 | 6.1 | 0.00 | 0.17 | 0.00 | 57 | 1008.3 |
| 20260510040004 | 56 | 4 | 1.7 | 6.1 | 0.00 | 0.17 | 0.00 | 57 | 1008.3 |
| 20260510035533 | 56 | 358 | 1.7 | 6.1 | 0.00 | 0.17 | 0.17 | 57 | 1008.3 |
| 20260510035503 | 56 | 358 | 1.7 | 6.1 | 0.00 | 0.17 | 0.17 | 57 | 1008.3 |
| 20260510035033 | 56 | 1 | 3.5 | 7.8 | 0.00 | 0.17 | 0.17 | 56 | 1008.2 |
| 20260510035003 | 56 | 360 | 3.5 | 7.8 | 0.00 | 0.17 | 0.17 | 56 | 1008.2 |
| 20260510034533 | 56 | 355 | 3.5 | 7.8 | 0.00 | 0.17 | 0.17 | 56 | 1008.1 |
| 20260510034503 | 56 | 355 | 3.5 | 7.8 | 0.00 | 0.17 | 0.17 | 56 | 1008.1 |
| 20260510034033 | 56 | 352 | 2.6 | 7.8 | 0.00 | 0.17 | 0.17 | 56 | 1008.0 |
| 20260510034003 | 56 | 352 | 2.6 | 7.8 | 0.00 | 0.17 | 0.17 | 56 | 1008.0 |
| 20260510033533 | 57 | 353 | 3.5 | 9.6 | 0.00 | 0.17 | 0.17 | 56 | 1007.9 |
| 20260510033503 | 57 | 353 | 3.5 | 9.6 | 0.00 | 0.17 | 0.17 | 56 | 1007.9 |
| 20260510033033 | 57 | 346 | 4.3 | 9.6 | 0.00 | 0.17 | 0.17 | 55 | 1007.9 |
| 20260510033004 | 57 | 346 | 4.3 | 9.6 | 0.00 | 0.17 | 0.17 | 55 | 1007.9 |
| 20260510032533 | 57 | 345 | 4.3 | 11.3 | 0.00 | 0.17 | 0.17 | 55 | 1007.9 |
| 20260510032503 | 57 | 345 | 4.3 | 11.3 | 0.00 | 0.17 | 0.17 | 55 | 1007.9 |
| 20260510032033 | 58 | 358 | 4.3 | 11.3 | 0.00 | 0.17 | 0.17 | 55 | 1007.7 |
| 20260510032003 | 58 | 358 | 4.3 | 11.3 | 0.00 | 0.17 | 0.17 | 55 | 1007.7 |
| 20260510031533 | 58 | 353 | 3.5 | 11.3 | 0.00 | 0.17 | 0.17 | 56 | 1007.6 |
| 20260510031503 | 58 | 353 | 3.5 | 11.3 | 0.00 | 0.17 | 0.17 | 56 | 1007.6 |
| 20260510031033 | 59 | 345 | 2.6 | 8.7 | 0.00 | 0.17 | 0.17 | 56 | 1007.5 |
| 20260510031024 | 59 | 345 | 2.6 | 8.7 | 0.00 | 0.17 | 0.17 | 56 | 1007.5 |
| 20260510030533 | 59 | 350 | 1.7 | 7.0 | 0.00 | 0.17 | 0.17 | 55 | 1007.2 |
| 20260510030503 | 59 | 349 | 1.7 | 7.0 | 0.00 | 0.17 | 0.17 | 55 | 1007.2 |
| 20260510030033 | 60 | 343 | 3.5 | 11.3 | 0.00 | 0.17 | 0.17 | 54 | 1007.3 |
| 20260510030025 | 60 | 343 | 3.5 | 11.3 | 0.00 | 0.17 | 0.17 | 54 | 1007.3 |
| 20260510025533 | 60 | 335 | 3.5 | 11.3 | 0.00 | 0.17 | 0.17 | 52 | 1007.0 |
| 20260510025503 | 60 | 335 | 3.5 | 11.3 | 0.00 | 0.17 | 0.17 | 52 | 1007.0 |
| 20260510025033 | 60 | 337 | 4.3 | 11.3 | 0.00 | 0.17 | 0.17 | 51 | 1006.8 |
| 20260510025003 | 60 | 337 | 4.3 | 11.3 | 0.00 | 0.17 | 0.17 | 51 | 1006.8 |
| 20260510024532 | 61 | 345 | 4.3 | 11.3 | 0.00 | 0.17 | 0.17 | 50 | 1006.8 |
| 20260510024504 | 61 | 345 | 4.3 | 11.3 | 0.00 | 0.17 | 0.17 | 50 | 1006.8 |
| 20260510024032 | 61 | 335 | 5.2 | 13.0 | 0.00 | 0.17 | 0.17 | 51 | 1006.8 |
| 20260510024003 | 61 | 335 | 5.2 | 13.0 | 0.00 | 0.17 | 0.17 | 51 | 1006.8 |
| 20260510023532 | 61 | 339 | 6.1 | 13.0 | 0.00 | 0.17 | 0.17 | 50 | 1006.8 |
| 20260510023503 | 61 | 338 | 6.1 | 13.0 | 0.00 | 0.17 | 0.17 | 50 | 1006.8 |
| 20260510023032 | 61 | 343 | 5.2 | 12.2 | 0.00 | 0.17 | 0.17 | 51 | 1006.5 |
| 20260510023024 | 61 | 343 | 5.2 | 12.2 | 0.00 | 0.17 | 0.17 | 51 | 1006.5 |
| 20260510022532 | 61 | 328 | 3.5 | 10.4 | 0.00 | 0.17 | 0.17 | 54 | 1006.1 |
| 20260510022524 | 61 | 328 | 3.5 | 10.4 | 0.00 | 0.17 | 0.17 | 54 | 1006.1 |
| 20260510022032 | 61 | 300 | 1.7 | 4.3 | 0.00 | 0.17 | 0.17 | 57 | 1005.9 |
| 20260510022003 | 61 | 300 | 1.7 | 4.3 | 0.00 | 0.17 | 0.17 | 57 | 1005.9 |
| 20260510021532 | 61 | 299 | 1.7 | 2.6 | 0.00 | 0.17 | 0.17 | 57 | 1005.8 |
| 20260510021524 | 61 | 299 | 1.7 | 2.6 | 0.00 | 0.17 | 0.17 | 57 | 1005.8 |
| 20260510021032 | 61 | 299 | 0.9 | 2.6 | 0.00 | 0.17 | 0.17 | 56 | 1005.5 |
| 20260510021024 | 61 | 299 | 0.9 | 2.6 | 0.00 | 0.17 | 0.17 | 56 | 1005.5 |
| 20260510020532 | 61 | 299 | 0.9 | 1.7 | 0.00 | 0.17 | 0.17 | 55 | 1005.4 |
| 20260510020504 | 61 | 299 | 0.9 | 1.7 | 0.00 | 0.17 | 0.17 | 55 | 1005.4 |
| 20260510020032 | 62 | 299 | 0.9 | 2.6 | 0.00 | 0.17 | 0.17 | 54 | 1005.2 |
| 20260510020003 | 62 | 299 | 0.9 | 2.6 | 0.00 | 0.17 | 0.17 | 54 | 1005.2 |
| 20260510015532 | 62 | 299 | 1.7 | 2.6 | 0.00 | 0.17 | 0.17 | 53 | 1005.3 |
| 20260510015504 | 62 | 299 | 1.7 | 2.6 | 0.00 | 0.17 | 0.17 | 53 | 1005.3 |
| 20260510015032 | 62 | 299 | 1.7 | 2.6 | 0.00 | 0.17 | 0.17 | 53 | 1005.1 |
| 20260510015025 | 62 | 299 | 1.7 | 2.6 | 0.00 | 0.17 | 0.17 | 53 | 1005.1 |
| 20260510014532 | 62 | 299 | 1.7 | 3.5 | 0.00 | 0.17 | 0.17 | 52 | 1005.0 |
| 20260510014503 | 62 | 299 | 1.7 | 3.5 | 0.00 | 0.17 | 0.17 | 52 | 1005.0 |
| 20260510014032 | 63 | 298 | 0.9 | 3.5 | 0.00 | 0.17 | 0.17 | 51 | 1004.9 |
| 20260510014003 | 63 | 298 | 0.9 | 3.5 | 0.00 | 0.17 | 0.17 | 51 | 1004.9 |
| 20260510013531 | 63 | 298 | 0.9 | 2.6 | 0.00 | 0.17 | 0.17 | 51 | 1004.7 |
| 20260510013503 | 63 | 298 | 0.9 | 2.6 | 0.00 | 0.17 | 0.17 | 51 | 1004.7 |
| 20260510013031 | 63 | 298 | 0.9 | 2.6 | 0.00 | 0.17 | 0.17 | 50 | 1004.5 |
| 20260510013004 | 63 | 298 | 0.9 | 2.6 | 0.00 | 0.17 | 0.17 | 50 | 1004.5 |
| 20260510012531 | 64 | 298 | 0.9 | 2.6 | 0.00 | 0.17 | 0.17 | 50 | 1004.3 |
| 20260510012503 | 64 | 298 | 0.9 | 2.6 | 0.00 | 0.17 | 0.17 | 50 | 1004.3 |
| 20260510012031 | 64 | 298 | 0.9 | 2.6 | 0.00 | 0.17 | 0.17 | 49 | 1004.3 |
| 20260510012003 | 64 | 298 | 0.9 | 2.6 | 0.00 | 0.17 | 0.17 | 49 | 1004.3 |
| 20260510011531 | 64 | 298 | 0.0 | 1.7 | 0.00 | 0.17 | 0.17 | 49 | 1004.2 |
| 20260510011503 | 64 | 298 | 0.0 | 1.7 | 0.00 | 0.17 | 0.17 | 49 | 1004.2 |
| 20260510011031 | 65 | 298 | 0.9 | 2.6 | 0.00 | 0.17 | 0.17 | 48 | 1004.1 |
| 20260510011003 | 65 | 298 | 0.9 | 2.6 | 0.00 | 0.17 | 0.17 | 48 | 1004.1 |
| 20260510010531 | 65 | 298 | 1.7 | 3.5 | 0.00 | 0.17 | 0.17 | 47 | 1004.1 |
| 20260510010504 | 65 | 298 | 1.7 | 3.5 | 0.00 | 0.17 | 0.17 | 47 | 1004.1 |
| 20260510010031 | 65 | 295 | 1.7 | 3.5 | 0.00 | 0.17 | 0.17 | 47 | 1004.0 |
| 20260510010004 | 65 | 295 | 1.7 | 3.5 | 0.00 | 0.17 | 0.17 | 47 | 1004.0 |
| 20260510005531 | 66 | 290 | 2.6 | 5.2 | 0.00 | 0.17 | 0.17 | 46 | 1004.0 |
| 20260510005503 | 66 | 290 | 2.6 | 5.2 | 0.00 | 0.17 | 0.17 | 46 | 1004.0 |
| 20260510005031 | 66 | 294 | 2.6 | 7.0 | 0.00 | 0.17 | 0.17 | 46 | 1003.8 |
| 20260510005003 | 66 | 294 | 2.6 | 7.0 | 0.00 | 0.17 | 0.17 | 46 | 1003.8 |
| 20260510004531 | 66 | 303 | 3.5 | 7.0 | 0.00 | 0.17 | 0.17 | 46 | 1003.8 |
| 20260510004525 | 66 | 303 | 3.5 | 7.0 | 0.00 | 0.17 | 0.17 | 46 | 1003.8 |
| 20260510004031 | 66 | 312 | 3.5 | 7.8 | 0.00 | 0.17 | 0.17 | 45 | 1003.7 |
| 20260510004004 | 66 | 312 | 3.5 | 7.8 | 0.00 | 0.17 | 0.17 | 45 | 1003.7 |
| 20260510003501 | 67 | 303 | 3.5 | 7.8 | 0.00 | 0.17 | 0.17 | 44 | 1003.6 |
| 20260510003002 | 67 | 282 | 3.5 | 9.6 | 0.00 | 0.17 | 0.17 | 44 | 1003.4 |
| 20260510003000 | 67 | 280 | 3.5 | 9.6 | 0.00 | 0.17 | 0.17 | 44 | 1003.4 |
| 20260510002501 | 67 | 287 | 3.5 | 9.6 | 0.00 | 0.17 | 0.17 | 44 | 1003.4 |
| 20260510002001 | 67 | 287 | 3.5 | 7.0 | 0.00 | 0.17 | 0.17 | 44 | 1003.3 |
| 20260510001501 | 68 | 282 | 2.6 | 7.0 | 0.00 | 0.17 | 0.17 | 43 | 1003.2 |
| 20260510001002 | 68 | 288 | 3.5 | 8.7 | 0.00 | 0.17 | 0.17 | 43 | 1003.2 |
| 20260510001000 | 68 | 290 | 3.5 | 8.7 | 0.00 | 0.17 | 0.17 | 43 | 1003.2 |
| 20260510000502 | 68 | 286 | 4.3 | 8.7 | 0.00 | 0.17 | 0.17 | 42 | 1003.3 |
| 20260510000500 | 68 | 288 | 4.3 | 8.7 | 0.00 | 0.17 | 0.17 | 42 | 1003.3 |
| 20260510000001 | 68 | 292 | 4.3 | 9.6 | 0.00 | 0.17 | 0.17 | 42 | 1003.2 |
| 20260509235522 | 68 | 289 | 5.2 | 10.4 | 0.00 | 0.17 | 0.17 | 41 | 1003.1 |
| 20260509235500 | 68 | 290 | 6.1 | 10.4 | 0.00 | 0.17 | 0.17 | 41 | 1003.2 |
| 20260509235023 | 68 | 291 | 6.1 | 11.3 | 0.00 | 0.17 | 0.17 | 41 | 1003.2 |
| 20260509235000 | 68 | 294 | 6.1 | 13.9 | 0.00 | 0.17 | 0.17 | 41 | 1003.1 |
| 20260509234501 | 69 | 303 | 7.0 | 13.9 | 0.00 | 0.17 | 0.17 | 41 | 1003.1 |
| 20260509234001 | 69 | 301 | 7.0 | 13.9 | 0.00 | 0.17 | 0.17 | 39 | 1003.1 |
| 20260509233502 | 69 | 280 | 7.0 | 15.6 | 0.00 | 0.17 | 0.17 | 39 | 1003.1 |
| 20260509233500 | 69 | 275 | 7.0 | 15.6 | 0.00 | 0.17 | 0.17 | 39 | 1003.1 |
| 20260509233001 | 70 | 266 | 7.8 | 15.6 | 0.00 | 0.17 | 0.17 | 39 | 1003.1 |
| 20260509232501 | 70 | 269 | 7.8 | 14.8 | 0.00 | 0.17 | 0.17 | 38 | 1002.9 |
| 20260509232001 | 70 | 278 | 9.6 | 20.9 | 0.00 | 0.17 | 0.17 | 39 | 1002.8 |
| 20260509231501 | 70 | 279 | 11.3 | 20.9 | 0.00 | 0.17 | 0.17 | 39 | 1002.9 |
| 20260509231001 | 70 | 280 | 13.0 | 30.4 | 0.00 | 0.17 | 0.17 | 38 | 1002.9 |
| 20260509230502 | 70 | 284 | 13.0 | 30.4 | 0.00 | 0.17 | 0.17 | 37 | 1002.7 |
| 20260509230500 | 70 | 284 | 13.9 | 30.4 | 0.00 | 0.17 | 0.17 | 37 | 1002.7 |
| 20260509230001 | 70 | 283 | 13.0 | 22.6 | 0.00 | 0.17 | 0.17 | 37 | 1002.7 |
| 20260509225959 | 70 | 282 | 12.2 | 22.6 | 0.00 | 0.17 | 0.17 | 37 | 1002.7 |
| 20260509225501 | 70 | 278 | 12.2 | 22.6 | 0.00 | 0.17 | 0.17 | 37 | 1002.5 |
| 20260509225459 | 70 | 278 | 12.2 | 21.7 | 0.00 | 0.17 | 0.17 | 37 | 1002.5 |
| 20260509225002 | 70 | 274 | 12.2 | 21.7 | 0.00 | 0.17 | 0.17 | 38 | 1002.4 |
| 20260509224959 | 70 | 271 | 12.2 | 21.7 | 0.00 | 0.17 | 0.17 | 38 | 1002.4 |
| 20260509224522 | 70 | 266 | 13.0 | 24.3 | 0.00 | 0.17 | 0.17 | 38 | 1002.1 |
| 20260509224459 | 70 | 265 | 13.0 | 26.1 | 0.00 | 0.17 | 0.17 | 39 | 1002.1 |
| 20260509224002 | 70 | 265 | 13.0 | 26.1 | 0.00 | 0.17 | 0.17 | 39 | 1002.0 |
| 20260509223959 | 70 | 266 | 11.3 | 26.1 | 0.00 | 0.17 | 0.17 | 38 | 1002.0 |
| 20260509223501 | 70 | 271 | 11.3 | 26.1 | 0.00 | 0.17 | 0.17 | 39 | 1002.0 |
| 20260509223459 | 70 | 271 | 11.3 | 21.7 | 0.00 | 0.17 | 0.17 | 39 | 1001.9 |
| 20260509223001 | 70 | 267 | 10.4 | 21.7 | 0.00 | 0.17 | 0.17 | 39 | 1001.9 |
| 20260509222959 | 70 | 266 | 11.3 | 21.7 | 0.00 | 0.17 | 0.17 | 39 | 1001.9 |
| 20260509222502 | 70 | 260 | 9.6 | 20.9 | 0.00 | 0.17 | 0.17 | 38 | 1001.9 |
| 20260509222459 | 70 | 261 | 9.6 | 20.9 | 0.00 | 0.17 | 0.17 | 39 | 1001.7 |
| 20260509222001 | 70 | 267 | 9.6 | 20.9 | 0.00 | 0.17 | 0.17 | 39 | 1001.7 |
| 20260509221959 | 71 | 268 | 10.4 | 20.0 | 0.00 | 0.17 | 0.17 | 39 | 1001.6 |
| 20260509221501 | 71 | 273 | 12.2 | 22.6 | 0.00 | 0.17 | 0.17 | 38 | 1001.6 |
| 20260509221459 | 71 | 274 | 13.0 | 22.6 | 0.00 | 0.17 | 0.17 | 38 | 1001.6 |
| 20260509221001 | 71 | 274 | 12.2 | 22.6 | 0.00 | 0.17 | 0.17 | 38 | 1001.6 |
| 20260509220959 | 71 | 273 | 12.2 | 22.6 | 0.00 | 0.17 | 0.17 | 38 | 1001.8 |
| 20260509220501 | 71 | 273 | 10.4 | 22.6 | 0.00 | 0.17 | 0.17 | 37 | 1001.4 |
| 20260509220459 | 71 | 272 | 10.4 | 20.0 | 0.00 | 0.17 | 0.17 | 38 | 1001.5 |
| 20260509220001 | 71 | 272 | 12.2 | 25.2 | 0.00 | 0.17 | 0.17 | 38 | 1001.5 |
| 20260509215959 | 71 | 271 | 11.3 | 25.2 | 0.00 | 0.17 | 0.17 | 38 | 1001.5 |
| 20260509215501 | 71 | 269 | 10.4 | 25.2 | 0.00 | 0.17 | 0.17 | 37 | 1001.5 |
| 20260509215458 | 71 | 268 | 9.6 | 25.2 | 0.00 | 0.17 | 0.17 | 38 | 1001.3 |
| 20260509215002 | 71 | 269 | 9.6 | 19.1 | 0.00 | 0.17 | 0.17 | 40 | 1001.3 |
| 20260509214958 | 71 | 272 | 9.6 | 19.1 | 0.00 | 0.17 | 0.17 | 40 | 1001.3 |
| 20260509214501 | 71 | 266 | 8.7 | 19.1 | 0.00 | 0.17 | 0.17 | 39 | 1001.1 |
| 20260509214458 | 71 | 262 | 8.7 | 19.1 | 0.00 | 0.17 | 0.17 | 39 | 1001.1 |
| 20260509214001 | 71 | 250 | 8.7 | 17.4 | 0.00 | 0.17 | 0.17 | 40 | 1001.2 |
| 20260509213958 | 71 | 247 | 8.7 | 17.4 | 0.00 | 0.17 | 0.17 | 41 | 1001.2 |
| 20260509213502 | 71 | 258 | 9.6 | 18.2 | 0.00 | 0.17 | 0.17 | 40 | 1001.0 |
| 20260509213458 | 71 | 260 | 9.6 | 18.2 | 0.00 | 0.17 | 0.17 | 40 | 1001.0 |
| 20260509213002 | 71 | 263 | 9.6 | 18.2 | 0.00 | 0.17 | 0.17 | 41 | 1001.1 |
| 20260509212958 | 70 | 264 | 8.7 | 18.2 | 0.00 | 0.17 | 0.17 | 41 | 1001.1 |
| 20260509212501 | 70 | 255 | 7.8 | 17.4 | 0.00 | 0.17 | 0.17 | 42 | 1001.1 |
| 20260509212458 | 70 | 254 | 7.8 | 17.4 | 0.00 | 0.17 | 0.17 | 43 | 1001.1 |
| 20260509212022 | 70 | 255 | 7.8 | 16.5 | 0.00 | 0.17 | 0.17 | 43 | 1001.2 |
| 20260509211958 | 70 | 258 | 8.7 | 16.5 | 0.00 | 0.17 | 0.17 | 44 | 1001.2 |
| 20260509211502 | 70 | 263 | 8.7 | 17.4 | 0.00 | 0.17 | 0.17 | 44 | 1001.1 |
| 20260509211458 | 70 | 266 | 9.6 | 17.4 | 0.00 | 0.17 | 0.17 | 46 | 1001.1 |
| 20260509211001 | 69 | 270 | 8.7 | 18.2 | 0.00 | 0.17 | 0.17 | 47 | 1001.3 |
| 20260509210958 | 69 | 271 | 8.7 | 18.2 | 0.00 | 0.17 | 0.17 | 46 | 1001.2 |
| 20260509210501 | 69 | 275 | 7.8 | 18.2 | 0.00 | 0.17 | 0.17 | 54 | 1001.2 |
| 20260509210458 | 69 | 275 | 7.0 | 18.2 | 0.00 | 0.17 | 0.17 | 54 | 1001.3 |
| 20260509210023 | 69 | 285 | 6.1 | 14.8 | 0.00 | 0.17 | 0.17 | 58 | 1001.3 |
| 20260509205958 | 68 | 280 | 5.2 | 14.8 | 0.00 | 0.17 | 0.17 | 60 | 1001.3 |
| 20260509205501 | 68 | 271 | 6.1 | 12.2 | 0.00 | 0.17 | 0.17 | 61 | 1001.2 |
| 20260509205458 | 68 | 268 | 7.0 | 12.2 | 0.00 | 0.17 | 0.17 | 61 | 1001.3 |
| 20260509205002 | 67 | 269 | 7.0 | 12.2 | 0.00 | 0.17 | 0.17 | 63 | 1001.4 |
| 20260509204957 | 67 | 274 | 6.1 | 12.2 | 0.00 | 0.17 | 0.17 | 63 | 1001.5 |
| 20260509204502 | 66 | 289 | 6.1 | 12.2 | 0.00 | 0.17 | 0.17 | 65 | 1001.6 |
| 20260509204457 | 66 | 292 | 6.1 | 12.2 | 0.00 | 0.17 | 0.17 | 65 | 1001.6 |
| 20260509204001 | 65 | 294 | 6.1 | 12.2 | 0.00 | 0.17 | 0.17 | 69 | 1001.4 |
| 20260509203957 | 65 | 293 | 6.1 | 12.2 | 0.00 | 0.17 | 0.17 | 68 | 1001.5 |
| 20260509203502 | 64 | 279 | 4.3 | 10.4 | 0.00 | 0.17 | 0.17 | 70 | 1001.6 |
| 20260509203457 | 64 | 273 | 3.5 | 9.6 | 0.01 | 0.17 | 0.17 | 73 | 1001.7 |
| 20260509203002 | 63 | 241 | 2.6 | 5.2 | 0.06 | 0.17 | 0.17 | 77 | 1001.8 |
| 20260509202957 | 63 | 235 | 2.6 | 4.3 | 0.08 | 0.17 | 0.17 | 77 | 1001.8 |
| 20260509202502 | 63 | 237 | 2.6 | 4.3 | 0.12 | 0.17 | 0.17 | 80 | 1001.9 |
| 20260509202457 | 63 | 238 | 2.6 | 4.3 | 0.12 | 0.17 | 0.17 | 80 | 1002.0 |
| 20260509202002 | 62 | 235 | 2.6 | 4.3 | 0.12 | 0.17 | 0.17 | 82 | 1001.9 |
| 20260509201957 | 62 | 235 | 1.7 | 4.3 | 0.12 | 0.17 | 0.17 | 82 | 1001.9 |
| 20260509201502 | 61 | 232 | 1.7 | 4.3 | 0.13 | 0.17 | 0.17 | 83 | 1002.1 |
| 20260509201457 | 61 | 232 | 1.7 | 4.3 | 0.13 | 0.17 | 0.17 | 83 | 1002.1 |
| 20260509201001 | 61 | 232 | 1.7 | 4.3 | 0.13 | 0.17 | 0.17 | 85 | 1002.0 |
| 20260509200957 | 61 | 232 | 1.7 | 4.3 | 0.13 | 0.17 | 0.17 | 85 | 1002.0 |
| 20260509200501 | 60 | 231 | 0.9 | 3.5 | 0.14 | 0.17 | 0.17 | 86 | 1002.0 |
| 20260509200457 | 60 | 230 | 1.7 | 3.5 | 0.14 | 0.17 | 0.17 | 86 | 1002.0 |
| 20260509200023 | 60 | 228 | 0.9 | 3.5 | 0.14 | 0.17 | 0.17 | 86 | 1002.0 |
| 20260509195957 | 60 | 227 | 0.9 | 3.5 | 0.14 | 0.17 | 0.17 | 86 | 1002.0 |
| 20260509195502 | 60 | 228 | 0.9 | 3.5 | 0.17 | 0.17 | 0.17 | 85 | 1002.2 |
| 20260509195457 | 59 | 228 | 1.7 | 4.3 | 0.17 | 0.17 | 0.17 | 86 | 1002.2 |
| 20260509195001 | 59 | 241 | 1.7 | 7.0 | 0.17 | 0.17 | 0.17 | 86 | 1002.1 |
| 20260509194957 | 59 | 245 | 1.7 | 7.0 | 0.17 | 0.17 | 0.17 | 86 | 1002.2 |
| 20260509194502 | 58 | 253 | 3.5 | 7.0 | 0.17 | 0.17 | 0.17 | 82 | 1002.2 |
| 20260509194457 | 58 | 255 | 3.5 | 10.4 | 0.17 | 0.17 | 0.17 | 81 | 1002.2 |
| 20260509194023 | 58 | 251 | 5.2 | 10.4 | 0.17 | 0.17 | 0.17 | 79 | 1002.1 |
| 20260509193957 | 58 | 254 | 6.1 | 15.6 | 0.17 | 0.17 | 0.17 | 77 | 1002.1 |
| 20260509193502 | 59 | 269 | 8.7 | 26.1 | 0.16 | 0.16 | 0.16 | 74 | 1002.3 |
| 20260509193457 | 60 | 273 | 9.6 | 26.1 | 0.16 | 0.16 | 0.16 | 73 | 1002.1 |
| 20260509193002 | 61 | 281 | 10.4 | 26.1 | 0.11 | 0.11 | 0.11 | 72 | 1002.7 |
| 20260509192956 | 61 | 282 | 10.4 | 26.1 | 0.09 | 0.09 | 0.09 | 71 | 1002.8 |